Location: Cluj-Napoca
(46.7712°N, 23.6236°E)
Time: 00:40:55
(UTC+02:00)

ISS - Pass Details

Date: 20 January 2020
Orbit: 416 x 422 km, 51.6° (Epoch: 20 February)

Event Time Altitude Azimuth Distance (km) Brightness Sun altitude
Rises 19:18:32 0° 216° (SW) 2,365 0.7 -21.6°
Reaches altitude 10° 19:20:45 10° 205° (SSW) 1,503 -0.6 -22.0°
Enters shadow 19:22:16 21° 187° (S) 1,003 -1.8 -22.2°
